QPF
0.00 0.00 0.00 0.00 0.00 0.00 0.00 0.00 0.00 0.00 0.00 0.00 0.00 0.00 0.00 0.00 0.00 0.03 0.07 0.05 0.03 0.02 0.00 0.01 0.00 0.00 0.00 0.00 0.00 0.01 0.01 0.00 0.00 0.00 0.00 0.00 0.05 0.03 0.00 0.00 0.00 0.00 0.00
0.00 0.00 0.00 0.00 0.00 0.00 0.00 0.00 0.00 0.00 0.00 0.00 0.00 0.00 0.00 0.00 0.00 0.04 0.06 0.07 0.06 0.02 0.00 0.01 0.02 0.00 0.01 0.01 0.02 0.03 0.03 0.02 0.00 0.02 0.02 0.04 0.07 0.03 0.01 0.00 0.00 0.00 0.00
0.00 0.00 0.00 0.00 0.00 0.00 0.00 0.00 0.00 0.00 0.00 0.00 0.00 0.00 0.00 0.00 0.01 0.02 0.05 0.10 0.09 0.07 0.03 0.00 0.04 0.01 0.04 0.03 0.03 0.04 0.01 0.05 0.04 0.06 0.01 0.00 0.00 0.00 0.00 0.00 0.00 0.00 0.00
0.00 0.00 0.00 0.00 0.00 0.00 0.00 0.00 0.00 0.00 0.00 0.00 0.00 0.00 0.00 0.00 0.00 0.00 0.03 0.03 0.04 0.04 0.09 0.08 0.06 0.08 0.12 0.07 0.05 0.09 0.07 0.09 0.08 0.02 0.00 0.00 0.00 0.00 0.00 0.00 0.00 0.00 0.00
0.00 0.00 0.00 0.00 0.00 0.00 0.00 0.00 0.00 0.00 0.00 0.00 0.00 0.00 0.00 0.00 0.00 0.01 0.05 0.06 0.06 0.03 0.00 0.02 0.01 0.08 0.06 0.07 0.04 0.08 0.10 0.08 0.07 0.04 0.00 0.00 0.00 0.00 0.00 0.00 0.00 0.00 0.00
0.01 0.00 0.00 0.00 0.00 0.00 0.01 0.01 0.00 0.00 0.00 0.00 0.00 0.00 0.00 0.00 0.00 0.02 0.02 0.00 0.00 0.00 0.00 0.03 0.03 0.03 0.01 0.01 0.00 0.02 0.08 0.08 0.07 0.05 0.04 0.02 0.00 0.00 0.00 0.00 0.00 0.02 0.00
0.04 0.04 0.06 0.09 0.08 0.12 0.14 0.15 0.08 0.08 0.07 0.03 0.01 0.01 0.03 0.02 0.00 0.00 0.00 0.00 0.00 0.00 0.01 0.05 0.04 0.01 0.00 0.00 0.00 0.00 0.02 0.05 0.06 0.04 0.05 0.02 0.00 0.00 0.00 0.00 0.00 0.00 0.00
0.04 0.05 0.09 0.10 0.13 0.15 0.10 0.11 0.12 0.13 0.16 0.10 0.04 0.02 0.01 0.01 0.01 0.00 0.00 0.00 0.00 0.00 0.00 0.00 0.02 0.02 0.00 0.00 0.00 0.00 0.00 0.00 0.00 0.00 0.00 0.00 0.00 0.00 0.00 0.00 0.00 0.00 0.00
0.02 0.06 0.06 0.06 0.05 0.05 0.05 0.04 0.05 0.08 0.08 0.11 0.09 0.06 0.04 0.03 0.02 0.00 0.00 0.00 0.00 0.00 0.00 0.00 0.00 0.00 0.00 0.00 0.00 0.00 0.00 0.00 0.00 0.00 0.00 0.00 0.00 0.00 0.00 0.00 0.00 0.00 0.00
0.03 0.00 0.00 0.01 0.01 0.01 0.02 0.02 0.04 0.04 0.05 0.05 0.04 0.02 0.01 0.01 0.02 0.01 0.01 0.00 0.00 0.00 0.00 0.00 0.00 0.00 0.00 0.00 0.00 0.00 0.00 0.00 0.00 0.00 0.00 0.00 0.00 0.00 0.00 0.00 0.00 0.00 0.00
0.00 0.00 0.00 0.01 0.02 0.03 0.03 0.03 0.04 0.03 0.03 0.02 0.01 0.01 0.01 0.02 0.03 0.03 0.03 0.02 0.01 0.00 0.01 0.00 0.00 0.00 0.00 0.00 0.00 0.00 0.00 0.00 0.00 0.00 0.00 0.00 0.00 0.00 0.00 0.00 0.00 0.00 0.00
0.00 0.00 0.01 0.01 0.01 0.03 0.04 0.03 0.02 0.01 0.01 0.01 0.01 0.03 0.04 0.01 0.01 0.03 0.04 0.03 0.01 0.00 0.00 0.00 0.00 0.00 0.00 0.00 0.00 0.00 0.00 0.00 0.00 0.00 0.00 0.00 0.00 0.00 0.00 0.00 0.00 0.00 0.00
0.00 0.00 0.00 0.00 0.01 0.01 0.01 0.00 0.00 0.00 0.00 0.01 0.01 0.02 0.01 0.00 0.00 0.00 0.00 0.01 0.00 0.00 0.00 0.00 0.00 0.00 0.00 0.00 0.00 0.00 0.00 0.00 0.00 0.00 0.00 0.00 0.00 0.00 0.00 0.00 0.00 0.00 0.00
0.00 0.00 0.00 0.01 0.03 0.00 0.01 0.00 0.00 0.00 0.02 0.02 0.02 0.02 0.02 0.01 0.01 0.01 0.00 0.00 0.00 0.00 0.00 0.00 0.00 0.00 0.00 0.00 0.00 0.00 0.00 0.00 0.00 0.00 0.00 0.00 0.00 0.00 0.00 0.00 0.00 0.00 0.00
0.00 0.00 0.00 0.02 0.04 0.03 0.04 0.03 0.02 0.02 0.04 0.05 0.03 0.02 0.02 0.01 0.00 0.00 0.00 0.00 0.00 0.00 0.00 0.00 0.00 0.00 0.00 0.00 0.00 0.00 0.00 0.00 0.00 0.00 0.00 0.00 0.00 0.00 0.00 0.00 0.00 0.00 0.00
0.00 0.00 0.01 0.01 0.01 0.01 0.01 0.02 0.02 0.02 0.02 0.03 0.02 0.02 0.01 0.00 0.00 0.00 0.00 0.00 0.00 0.00 0.00 0.00 0.00 0.00 0.00 0.00 0.00 0.00 0.00 0.00 0.00 0.00 0.00 0.00 0.00 0.00 0.00 0.00 0.00 0.00 0.00
0.00 0.00 0.00 0.00 0.00 0.00 0.00 0.00 0.00 0.00 0.00 0.01 0.00 0.00 0.00 0.00 0.00 0.00 0.00 0.00 0.00 0.00 0.00 0.00 0.00 0.00 0.00 0.00 0.00 0.00 0.00 0.00 0.00 0.00 0.00 0.00 0.00 0.00 0.00 0.00 0.00 0.00 0.00
0.00 0.00 0.00 0.00 0.00 0.00 0.00 0.00 0.00 0.00 0.00 0.00 0.00 0.00 0.00 0.00 0.00 0.00 0.00 0.00 0.00 0.00 0.00 0.00 0.00 0.00 0.00 0.00 0.00 0.00 0.00 0.00 0.00 0.00 0.00 0.00 0.00 0.00 0.00 0.00 0.00 0.00 0.00
0.00 0.00 0.00 0.00 0.00 0.00 0.00 0.00 0.00 0.00 0.00 0.00 0.00 0.00 0.00 0.00 0.00 0.00 0.00 0.00 0.00 0.00 0.00 0.00 0.00 0.00 0.00 0.00 0.00 0.00 0.00 0.00 0.00 0.00 0.00 0.00 0.00 0.00 0.00 0.00 0.00 0.00 0.00
0.00 0.00 0.00 0.00 0.00 0.00 0.00 0.00 0.00 0.00 0.00 0.00 0.00 0.00 0.00 0.00 0.00 0.00 0.00 0.00 0.00 0.00 0.00 0.00 0.00 0.00 0.00 0.00 0.00 0.00 0.00 0.00 0.00 0.00 0.00 0.00 0.00 0.00 0.00 0.00 0.00 0.00 0.00
0.00 0.00 0.00 0.00 0.00 0.00 0.00 0.00 0.00 0.00 0.00 0.00 0.00 0.00 0.00 0.00 0.00 0.00 0.00 0.00 0.00 0.00 0.00 0.00 0.00 0.00 0.00 0.00 0.00 0.00 0.00 0.00 0.00 0.00 0.00 0.00 0.00 0.00 0.00 0.00 0.00 0.00 0.00
0.00 0.00 0.00 0.00 0.00 0.00 0.00 0.00 0.00 0.00 0.00 0.00 0.00 0.00 0.00 0.00 0.00 0.00 0.00 0.00 0.00 0.00 0.00 0.00 0.00 0.00 0.00 0.00 0.00 0.00 0.00 0.00 0.00 0.00 0.00 0.00 0.00 0.00 0.00 0.00 0.00 0.00 0.00
0.00 0.00 0.00 0.00 0.00 0.00 0.00 0.00 0.00 0.00 0.00 0.00 0.00 0.00 0.00 0.00 0.00 0.00 0.00 0.00 0.00 0.00 0.00 0.00 0.00 0.00 0.00 0.00 0.00 0.00 0.00 0.00 0.00 0.00 0.00 0.00 0.00 0.00 0.00 0.00 0.00 0.00 0.00
0.00 0.00 0.00 0.00 0.00 0.00 0.00 0.00 0.00 0.00 0.00 0.00 0.00 0.00 0.00 0.00 0.00 0.00 0.00 0.00 0.00 0.00 0.00 0.00 0.00 0.00 0.00 0.00 0.00 0.00 0.00 0.00 0.00 0.00 0.00 0.00 0.00 0.00 0.00 0.00 0.00 0.00 0.00
0.00 0.00 0.00 0.00 0.00 0.00 0.00 0.00 0.00 0.00 0.00 0.00 0.00 0.00 0.00 0.00 0.00 0.00 0.00 0.00 0.00 0.00 0.00 0.00 0.00 0.00 0.00 0.00 0.00 0.00 0.00 0.00 0.00 0.00 0.00 0.00 0.00 0.00 0.00 0.00 0.00 0.00 0.00
0.00 0.00 0.00 0.00 0.00 0.00 0.00 0.00 0.00 0.00 0.00 0.00 0.00 0.00 0.00 0.00 0.00 0.00 0.00 0.00 0.00 0.00 0.00 0.00 0.00 0.00 0.00 0.00 0.00 0.00 0.00 0.00 0.00 0.00 0.00 0.00 0.00 0.00 0.00 0.00 0.00 0.00 0.00
MSLP
1016.78 1017.28 1017.70 1018.04 1018.36 1018.68 1018.88 1019.14 1019.34 1019.33 1019.32 1019.40 1019.64 1019.80 1019.82 1019.82 1019.72 1019.84 1019.99 1020.10 1020.19 1020.26 1020.22 1020.18 1020.06 1020.18 1019.97 1020.05 1020.16 1020.22 1020.01 1020.04 1019.63 1019.16 1019.41 1019.26 1019.50 1019.44 1019.15 1019.03 1018.70 1018.68 1019.98
1016.11 1016.77 1017.23 1017.67 1018.02 1018.22 1018.47 1018.72 1018.95 1019.10 1019.06 1019.29 1019.49 1019.58 1019.66 1019.67 1019.73 1019.66 1019.70 1019.67 1019.87 1019.90 1019.88 1019.95 1019.85 1019.73 1019.93 1020.01 1019.96 1020.07 1020.00 1019.96 1019.73 1019.42 1019.35 1019.34 1019.53 1019.50 1019.46 1019.42 1018.90 1018.93 1020.10
1015.66 1016.11 1016.57 1017.02 1017.39 1017.60 1017.89 1018.22 1018.54 1018.73 1018.88 1019.05 1019.32 1019.44 1019.45 1019.44 1019.52 1019.48 1019.49 1019.51 1019.53 1019.61 1019.63 1019.66 1019.64 1019.63 1019.65 1019.51 1019.82 1019.72 1019.57 1019.73 1019.61 1019.66 1019.27 1019.25 1019.31 1019.44 1019.44 1019.39 1019.37 1019.36 1019.64
1015.63 1015.91 1016.19 1016.44 1016.73 1016.94 1017.25 1017.68 1018.05 1018.37 1018.53 1018.69 1018.94 1019.13 1019.26 1019.30 1019.42 1019.39 1019.38 1019.26 1019.18 1019.14 1019.30 1019.48 1019.46 1019.48 1019.43 1019.36 1019.41 1019.57 1019.60 1019.73 1019.68 1019.55 1019.28 1019.11 1019.22 1019.43 1019.49 1019.15 1019.26 1019.46 1019.48
1015.54 1015.79 1015.90 1016.35 1016.65 1016.98 1017.09 1017.22 1017.53 1017.89 1018.22 1018.50 1018.66 1018.78 1018.97 1019.14 1019.19 1019.30 1019.28 1019.16 1019.00 1018.84 1018.88 1019.02 1019.10 1019.26 1019.32 1019.17 1019.17 1019.28 1019.44 1019.60 1019.75 1019.68 1019.38 1019.24 1019.10 1019.25 1019.22 1019.41 1019.20 1019.65 1020.14
1015.21 1015.36 1015.74 1016.23 1016.37 1016.56 1016.74 1016.92 1017.06 1017.35 1017.64 1018.08 1018.26 1018.35 1018.65 1018.94 1019.38 1019.48 1019.50 1019.18 1018.98 1018.86 1018.85 1018.98 1019.22 1019.27 1019.42 1019.48 1019.43 1019.39 1019.56 1019.48 1019.68 1019.68 1019.42 1019.24 1019.29 1019.34 1019.38 1019.25 1019.20 1019.60 1019.70
1015.16 1015.34 1015.47 1016.02 1016.18 1016.26 1016.36 1016.70 1016.64 1016.80 1017.20 1017.58 1017.83 1018.21 1018.41 1018.88 1019.25 1019.60 1019.49 1019.30 1019.07 1018.79 1018.82 1018.94 1019.03 1019.18 1019.29 1019.41 1019.60 1019.69 1019.80 1019.77 1019.81 1019.40 1019.29 1019.35 1019.37 1019.41 1019.50 1019.61 1019.59 1019.63 1019.91
1014.93 1015.55 1015.84 1015.84 1015.90 1016.29 1016.38 1016.49 1016.84 1016.96 1016.84 1017.13 1017.63 1018.08 1018.58 1018.91 1019.19 1019.52 1019.40 1019.28 1019.03 1019.11 1019.12 1018.99 1019.23 1019.50 1019.44 1019.52 1019.66 1019.80 1020.01 1020.25 1020.14 1019.42 1019.60 1019.86 1019.88 1019.76 1019.74 1019.72 1019.72 1020.24 1020.68
1015.20 1015.32 1015.50 1015.72 1015.79 1015.81 1015.84 1016.01 1016.22 1016.34 1017.24 1017.37 1017.54 1017.98 1018.37 1018.76 1019.23 1019.68 1019.58 1019.30 1019.09 1019.49 1019.64 1019.43 1019.60 1019.69 1019.92 1019.88 1019.78 1020.06 1020.37 1020.52 1020.97 1020.61 1020.62 1020.73 1020.57 1020.50 1020.21 1019.78 1019.85 1019.77 1019.82
1015.08 1015.40 1015.13 1015.52 1015.65 1015.70 1015.52 1015.28 1015.99 1016.32 1016.45 1017.14 1017.62 1018.15 1018.61 1018.94 1019.52 1019.44 1019.61 1019.30 1019.20 1019.40 1020.06 1020.04 1020.03 1020.28 1020.28 1020.14 1020.18 1020.28 1020.48 1020.66 1020.68 1020.72 1020.73 1020.54 1020.48 1020.80 1020.80 1020.34 1019.88 1019.72 1020.02
1015.76 1015.29 1015.74 1015.55 1015.71 1015.84 1015.66 1015.67 1016.18 1016.45 1016.31 1017.42 1018.15 1018.46 1018.94 1019.48 1019.55 1019.40 1019.37 1019.21 1019.38 1019.76 1020.23 1020.24 1020.24 1020.28 1020.36 1020.35 1020.58 1020.64 1020.62 1020.74 1020.92 1021.04 1021.14 1020.96 1020.90 1020.86 1021.04 1021.37 1021.35 1020.91 1020.86
1015.89 1016.46 1016.58 1016.42 1016.35 1016.20 1016.15 1016.26 1016.87 1017.43 1017.70 1018.09 1018.52 1019.01 1019.62 1019.75 1020.06 1019.70 1019.09 1019.58 1019.61 1019.73 1020.51 1020.88 1020.86 1021.20 1021.28 1020.98 1020.77 1020.82 1021.00 1020.83 1020.91 1021.32 1021.52 1021.82 1021.88 1022.07 1022.06 1022.44 1022.82 1022.85 1022.78
1017.20 1017.27 1017.48 1017.54 1017.46 1017.40 1017.22 1017.51 1017.96 1017.99 1018.85 1019.35 1019.13 1019.55 1020.01 1019.78 1020.42 1020.03 1019.53 1019.76 1020.22 1020.15 1020.53 1020.96 1021.34 1021.81 1021.62 1021.40 1021.30 1021.18 1021.16 1021.44 1021.44 1021.48 1021.88 1022.28 1022.42 1022.76 1022.80 1022.94 1023.28 1023.06 1023.32
1017.77 1017.86 1018.13 1018.20 1018.34 1018.55 1018.71 1018.84 1018.95 1019.44 1019.83 1019.81 1019.81 1020.15 1020.54 1020.92 1021.18 1021.26 1020.84 1020.88 1021.11 1021.27 1021.28 1021.52 1021.81 1021.80 1021.71 1021.72 1021.66 1021.57 1021.78 1022.08 1021.84 1022.49 1022.39 1022.69 1022.94 1023.03 1022.91 1023.06 1022.93 1023.15 1023.37
1018.51 1018.76 1018.77 1019.16 1019.50 1019.76 1020.11 1020.18 1020.47 1020.91 1020.52 1020.32 1020.39 1020.72 1021.30 1021.89 1022.46 1022.64 1022.19 1022.12 1021.90 1022.00 1021.81 1022.00 1022.23 1022.18 1021.98 1021.63 1021.58 1021.68 1021.96 1022.14 1022.04 1022.24 1022.30 1022.72 1022.68 1022.89 1023.01 1023.10 1022.88 1023.05 1023.12
1018.96 1019.30 1019.64 1019.68 1019.98 1020.34 1020.57 1020.76 1021.35 1021.60 1020.85 1020.89 1021.18 1021.26 1021.73 1021.89 1022.62 1022.35 1022.29 1022.20 1022.48 1022.30 1021.93 1022.08 1022.35 1022.42 1022.29 1021.96 1021.62 1021.79 1022.25 1022.64 1022.67 1022.56 1022.73 1022.87 1023.21 1023.04 1023.28 1023.15 1023.15 1023.79 1023.84
1019.65 1019.86 1020.07 1020.16 1020.25 1020.58 1020.61 1020.80 1021.32 1022.08 1022.14 1022.12 1022.28 1022.04 1021.85 1022.20 1022.34 1022.36 1022.04 1021.94 1022.35 1022.20 1021.86 1021.60 1022.08 1022.43 1022.45 1022.46 1022.54 1022.71 1022.97 1023.28 1023.59 1023.44 1023.38 1023.21 1023.29 1023.57 1023.48 1023.58 1023.83 1023.84 1024.14
1020.01 1020.11 1020.16 1020.24 1020.42 1020.52 1020.35 1020.60 1020.88 1021.26 1021.93 1022.31 1022.47 1022.52 1022.68 1022.53 1022.47 1022.70 1022.40 1022.19 1022.29 1021.78 1021.65 1021.52 1021.52 1021.72 1022.45 1022.68 1022.72 1023.07 1023.32 1023.92 1023.70 1023.80 1024.36 1024.04 1023.77 1023.59 1023.66 1023.58 1024.01 1024.32 1024.12
1020.03 1020.22 1020.23 1020.29 1020.54 1020.60 1020.35 1020.51 1020.71 1020.67 1021.00 1021.45 1021.76 1022.27 1022.41 1022.44 1022.48 1022.40 1022.40 1022.02 1021.88 1021.47 1021.31 1021.30 1021.26 1021.43 1021.64 1022.21 1022.41 1022.88 1022.87 1023.52 1023.84 1023.62 1023.79 1024.42 1024.59 1024.32 1023.78 1024.07 1024.62 1024.94 1024.59
1020.27 1020.59 1020.46 1020.65 1020.78 1020.76 1020.42 1020.52 1020.49 1020.70 1020.92 1021.24 1021.39 1021.48 1021.89 1021.98 1021.89 1021.86 1021.90 1021.80 1021.37 1021.05 1021.07 1021.12 1021.18 1021.40 1021.64 1021.80 1022.02 1022.42 1022.99 1023.36 1023.60 1023.70 1023.91 1023.99 1024.50 1024.67 1024.53 1024.32 1024.66 1024.98 1024.86
1020.12 1020.22 1020.60 1020.50 1020.75 1020.74 1020.78 1020.76 1020.84 1020.79 1020.97 1021.04 1020.86 1021.40 1022.05 1021.84 1021.41 1021.33 1021.40 1021.31 1021.12 1020.97 1021.02 1020.96 1021.17 1021.44 1021.58 1021.81 1022.20 1022.63 1022.92 1023.28 1023.76 1023.82 1023.84 1024.00 1024.36 1024.72 1024.60 1024.68 1024.97 1025.05 1025.16
1020.02 1020.16 1020.36 1020.39 1020.51 1020.62 1020.70 1020.74 1020.68 1020.62 1020.69 1020.70 1020.76 1021.29 1021.56 1021.38 1021.14 1021.16 1021.16 1021.13 1020.87 1020.86 1020.84 1021.12 1021.02 1020.96 1021.41 1021.80 1022.32 1022.38 1022.70 1023.04 1023.46 1023.88 1024.18 1024.15 1024.50 1025.03 1025.00 1024.83 1025.00 1025.31 1025.41
1019.83 1019.87 1020.02 1020.13 1020.36 1020.82 1020.69 1020.63 1020.58 1020.69 1020.68 1020.68 1020.74 1020.81 1020.92 1020.90 1020.95 1020.94 1020.88 1020.82 1020.76 1020.74 1020.78 1020.84 1021.07 1021.24 1021.48 1021.79 1022.18 1022.38 1022.41 1022.43 1022.91 1023.54 1023.61 1023.96 1024.42 1024.66 1024.85 1024.84 1024.81 1025.10 1025.12
1019.43 1019.57 1019.75 1019.98 1020.30 1020.38 1020.44 1020.47 1020.50 1020.84 1020.68 1020.56 1020.65 1020.74 1020.80 1020.83 1020.79 1020.71 1020.76 1020.66 1020.74 1020.74 1020.79 1020.98 1021.11 1021.12 1021.30 1021.54 1021.76 1022.12 1022.38 1022.56 1022.97 1023.24 1023.51 1023.61 1023.92 1024.60 1024.32 1024.68 1024.91 1024.97 1025.08
1019.12 1019.27 1019.65 1020.01 1020.29 1020.40 1020.46 1020.43 1020.39 1020.38 1020.44 1020.47 1020.48 1020.56 1020.58 1020.60 1020.52 1020.42 1020.30 1020.20 1020.32 1020.35 1020.39 1020.57 1020.65 1020.71 1020.95 1021.21 1021.35 1021.76 1022.34 1023.07 1023.10 1023.41 1023.57 1023.61 1023.86 1024.15 1024.30 1024.31 1024.63 1024.92 1024.93
1019.09 1019.24 1019.32 1019.48 1019.65 1019.82 1019.97 1020.18 1020.38 1020.57 1020.34 1020.17 1020.27 1020.58 1020.72 1020.50 1020.49 1020.34 1020.05 1019.84 1019.82 1019.74 1019.85 1019.93 1020.08 1020.34 1020.56 1020.95 1021.25 1021.64 1022.48 1022.98 1023.20 1023.59 1023.32 1023.50 1023.72 1023.93 1024.24 1024.40 1024.55 1024.52 1024.50
Thickness
5774 5772 5771 5770 5770 5770 5770 5769 5769 5770 5770 5771 5770 5769 5768 5768 5769 5770 5770 5769 5768 5768 5769 5769 5769 5769 5770 5769 5768 5767 5767 5765 5759 5767 5768 5769 5766 5766 5768 5768 5770 5772 5763
5776 5773 5771 5770 5769 5769 5768 5769 5768 5768 5768 5768 5768 5768 5768 5768 5769 5771 5771 5772 5769 5769 5769 5768 5769 5771 5768 5768 5768 5766 5766 5767 5765 5760 5766 5766 5764 5765 5764 5765 5769 5768 5760
5775 5773 5772 5770 5769 5768 5768 5769 5768 5767 5766 5766 5765 5765 5767 5769 5769 5770 5771 5771 5770 5770 5770 5769 5769 5769 5768 5770 5768 5767 5769 5768 5767 5762 5763 5766 5765 5765 5764 5763 5763 5763 5761
5768 5767 5767 5768 5768 5768 5768 5767 5766 5766 5765 5764 5764 5765 5766 5767 5766 5767 5767 5768 5768 5770 5769 5768 5769 5769 5768 5768 5768 5767 5767 5764 5763 5761 5761 5762 5762 5761 5760 5761 5759 5760 5760
5762 5762 5764 5764 5763 5763 5763 5764 5764 5763 5762 5762 5761 5761 5762 5763 5764 5763 5764 5765 5766 5767 5768 5767 5768 5766 5766 5767 5768 5766 5763 5760 5757 5755 5754 5755 5755 5753 5751 5753 5755 5754 5750
5758 5761 5761 5759 5759 5761 5761 5760 5761 5761 5761 5759 5759 5760 5758 5758 5751 5752 5754 5759 5762 5763 5762 5762 5760 5759 5761 5759 5761 5761 5760 5758 5752 5749 5749 5747 5747 5748 5747 5747 5747 5742 5742
5754 5758 5758 5756 5755 5756 5757 5757 5758 5758 5756 5754 5755 5755 5754 5751 5746 5744 5747 5752 5754 5756 5757 5757 5756 5757 5755 5756 5753 5753 5751 5751 5748 5751 5747 5745 5743 5744 5743 5737 5736 5734 5732
5749 5747 5748 5749 5750 5749 5751 5750 5749 5747 5750 5749 5747 5746 5743 5742 5740 5738 5740 5745 5747 5746 5747 5749 5748 5747 5748 5748 5747 5746 5744 5742 5744 5747 5744 5740 5735 5734 5733 5733 5730 5723 5718
5739 5740 5741 5740 5742 5744 5745 5744 5739 5738 5739 5738 5740 5738 5736 5733 5730 5728 5731 5735 5737 5734 5734 5736 5735 5736 5733 5735 5737 5733 5732 5730 5727 5731 5731 5729 5729 5727 5724 5724 5720 5720 5716
5730 5731 5737 5737 5734 5735 5740 5742 5737 5735 5732 5733 5731 5727 5725 5723 5718 5718 5722 5725 5726 5725 5720 5721 5719 5718 5718 5723 5725 5723 5718 5718 5718 5717 5718 5717 5714 5711 5712 5712 5715 5711 5708
5718 5726 5723 5727 5726 5727 5730 5730 5729 5725 5727 5721 5717 5716 5713 5709 5710 5712 5714 5715 5715 5711 5708 5710 5711 5710 5711 5712 5712 5711 5710 5708 5705 5704 5703 5703 5701 5700 5697 5693 5692 5694 5694
5715 5707 5709 5713 5714 5717 5717 5718 5713 5708 5709 5706 5702 5701 5697 5697 5694 5701 5706 5700 5700 5700 5693 5693 5695 5694 5693 5696 5700 5700 5698 5699 5697 5692 5688 5684 5682 5679 5679 5675 5671 5670 5667
5698 5698 5698 5699 5700 5701 5703 5700 5697 5699 5692 5688 5690 5688 5685 5687 5683 5687 5691 5688 5682 5687 5685 5681 5679 5676 5677 5682 5684 5687 5685 5682 5681 5679 5674 5670 5669 5665 5663 5662 5657 5657 5654
5687 5687 5686 5685 5685 5686 5684 5684 5684 5683 5679 5678 5677 5674 5672 5669 5669 5668 5673 5673 5669 5667 5667 5665 5664 5665 5667 5669 5672 5673 5669 5665 5667 5659 5660 5658 5655 5654 5653 5649 5650 5646 5641
5674 5673 5673 5669 5666 5664 5661 5662 5660 5658 5663 5668 5669 5665 5662 5658 5652 5651 5657 5656 5656 5655 5656 5655 5654 5654 5656 5660 5661 5659 5656 5654 5653 5651 5650 5645 5645 5641 5639 5637 5638 5634 5632
5662 5660 5655 5655 5653 5651 5649 5649 5644 5645 5652 5651 5651 5651 5646 5649 5645 5642 5645 5647 5645 5647 5648 5645 5641 5640 5642 5646 5649 5646 5641 5636 5635 5635 5633 5630 5624 5624 5621 5622 5621 5614 5611
5645 5643 5642 5642 5641 5638 5639 5641 5637 5631 5632 5634 5631 5634 5635 5635 5633 5633 5637 5640 5634 5635 5637 5638 5633 5630 5628 5626 5625 5624 5620 5615 5612 5613 5612 5612 5610 5605 5605 5602 5598 5597 5594
5628 5628 5630 5630 5630 5629 5631 5629 5629 5628 5623 5622 5619 5618 5616 5619 5619 5617 5619 5621 5621 5622 5622 5622 5622 5619 5614 5611 5609 5604 5601 5594 5594 5592 5585 5587 5588 5587 5585 5585 5580 5576 5576
5618 5617 5618 5617 5617 5616 5618 5617 5617 5619 5618 5614 5612 5607 5607 5606 5605 5606 5605 5608 5605 5608 5608 5608 5609 5605 5600 5594 5593 5589 5586 5579 5577 5578 5573 5566 5562 5564 5567 5562 5555 5551 5553
5611 5607 5607 5606 5604 5603 5605 5605 5606 5604 5603 5601 5600 5599 5596 5596 5597 5595 5594 5592 5593 5594 5593 5591 5590 5587 5583 5581 5578 5573 5568 5563 5559 5557 5554 5552 5544 5539 5538 5538 5533 5530 5530
5603 5602 5598 5599 5596 5594 5593 5592 5590 5591 5590 5588 5589 5585 5576 5580 5582 5582 5580 5579 5579 5578 5576 5575 5572 5568 5565 5561 5558 5553 5548 5542 5536 5534 5532 5527 5523 5518 5517 5514 5510 5506 5504
5596 5594 5592 5592 5590 5588 5587 5586 5585 5584 5582 5580 5579 5574 5569 5573 5572 5570 5568 5566 5566 5564 5562 5557 5557 5555 5549 5543 5536 5534 5529 5524 5519 5514 5509 5507 5502 5495 5495 5494 5492 5488 5486
5591 5590 5588 5587 5584 5578 5579 5577 5576 5573 5571 5569 5566 5564 5561 5559 5556 5554 5552 5551 5549 5548 5545 5541 5537 5532 5528 5523 5518 5514 5513 5511 5505 5498 5496 5492 5486 5482 5479 5477 5476 5473 5471
5587 5584 5581 5578 5574 5572 5570 5567 5565 5559 5559 5557 5554 5551 5548 5545 5542 5540 5537 5534 5531 5528 5525 5522 5518 5516 5512 5509 5505 5500 5496 5493 5489 5485 5480 5477 5473 5465 5466 5463 5459 5457 5454
5578 5576 5571 5565 5560 5557 5555 5553 5552 5549 5546 5543 5541 5538 5535 5532 5529 5527 5525 5523 5519 5516 5514 5510 5506 5504 5500 5495 5492 5486 5481 5474 5471 5466 5462 5460 5457 5453 5452 5450 5446 5442 5439
5569 5566 5563 5561 5557 5553 5549 5544 5540 5537 5536 5535 5531 5525 5521 5520 5517 5514 5513 5512 5508 5505 5502 5498 5494 5490 5485 5479 5476 5471 5467 5462 5457 5452 5449 5446 5443 5440 5436 5434 5432 5431 5429